loading
DOY 173 | 2024-06-21T05:30:34Z

THOR ABLESTAR DEB, 656

Orbit data source: Space-Track

THOR ABLESTAR DEB, 656 is space debris in LEO originally from a launch on Thu, 29 Jun 1961 UTC launched from the Air Force Eastern Test Range (AFETR). Debris objects in space refer to the collection of defunct objects orbiting the Earth. Examples of debris include non-operational satellites, rocket bodies, and fragments generated from explosions, collisions, or faulty payload assembly.

Loading next visibility...
Loading greatness...
THOR ABLESTAR DEB details
NORAD ID656
COSPAR ID
1961-015HH
Orbit
LEO
Last TLE update2 days ago
Origin
Flag of USUSAF SSD (US)
ManufacturerUnknown
BusUnknown
MotorUnknown
MassWet unknown, Dry mass unknown
Launch date (UTC)
1961-06-29 (63 years ago)
Launch vehicleUnknown
Launch site
Air Force Eastern Test Range (AFETR)
Object type
Payload
Rocket body
Debris
Radar Cross SectionSmall (<0.1 m²)
Predictive object data (real-time)
Latitude66.29192°
Longitude-167.82654°
Altitude938.347 km
Speed7.602 km/s
Apparent Right ascension02h 17m 52s
Apparent Declination25° 52' 33"
Sunlit
Object is in daylight
Predictive observer data (real-time)
Local Sidereal Time16:29:44
Azimuth30.867° NE
Elevation-17.394°
Doppler factor1
Orbital elements
Apogee1,888.618 km
Perigee867.575 km
Semi-major axis7,756.233 km
Eccentricity0.0658208
Inclination66.291°
RAAN248.9055°
Arg. of periapsis118.0081°
True anomaly242.09268°
Mean anomaly248.9114°
Mean motion3.17736 °/min
BSTAR0.0014196
Period113.3 mins
Definitive object data (Epoch: 2024-06-19T15:17:07.263Z)
Latitude-0.00003°
Longitude111.28479°
Altitude1,593.437 km
Speed6.976 km/s
True Right ascension16h 35m 37s
True Declination0° 00' 00"
Sunlit
Object was in full shadow at TLE epoch
TLE from 2 days ago
0 THOR ABLESTAR DEB
1 00656U 61015HH  24171.63688962  .00000624  00000-0  14196-2 0  9998
2 00656  66.2910 248.9055 0658208 118.0081 248.9114 12.70583877874460
Epoch: 2024-06-19T15:17Z
No data available

THOR ABLESTAR DEB Visibility forecast

Observer location: 39.9160978°, -105.1181434, 0m alt.

THOR ABLESTAR DEB is not visible in the next 10 days
Span
Click to sort rows by Start time (UTC) header in descending order
Start Az.
Max El. time (UTC)
Max El. Az.
Max El.
End time (UTC)
End Az.